7 * 24
多渠道服务支持
STARLINK-36910(NORAD编号68005)是SpaceX星链(Starlink)星座中的一颗第二代mini(V2 Mini)卫星,隶属于SpaceX公司的全球卫星互联网组网项目。该卫星由SpaceX猎鹰9号火箭运载发射,被部署到近地轨道,为星座扩容提供支持,助力实现全球无缝覆盖的高速卫星互联网服务,满足偏远地区网络接入、移动网络增强等需求。作为星链批量发射组网的一员,它延续了星链卫星的设计,支持星间链路技术,目前处于在轨运行状态,是SpaceX构建的近万颗卫星星座中活跃的在轨单元之一。
美国
(US)
| 数据来源 | 国际轨道数据 |
| 星历时间: | 2026-07-27T23:17:12+0800 11小时前 查看轨道信息 |
| 半长轴: | 6861.203km |
| 偏心率: | 0.0001526 |
| 轨道倾角: | 43.003° |
| 近地点辐角 | 274.916° |
| 升交点赤经 | 338.831° |
| 平近点角 | 85.152° |
| 近地点: | 482.018km |
| 远地点: | 484.114km |
| 周期: | 94.267分钟 |
| 每日圈数: | 15.275745 |